EW5349 Weather Reports


time (UTC)temp
C
wind
direction
speed
KPH
gust
KPH
rain 1hr
cm
rain 24hr
cm
rain mn
cm
humidity
%
barometer
mb
20260510033018 23 191 0.0 0.0 0.00 0.10 0.10 85 1008.3
20260510031523 24 191 0.0 0.0 0.00 0.10 0.10 84 1008.2
20260510030018 24 191 0.0 0.0 0.00 0.10 0.10 84 1007.8
20260510024521 25 191 0.0 0.0 0.00 0.10 0.10 83 1007.6
20260510023018 25 191 0.0 0.0 0.00 0.10 0.10 83 1007.6
20260510021538 25 172 0.0 0.0 0.00 0.10 0.10 82 1007.4
20260510020016 25 128 0.0 0.0 0.00 0.10 0.10 81 1007.2
20260510014530 26 322 0.0 0.0 0.00 0.10 0.10 80 1007.1
20260510013015 26 322 0.0 0.0 0.00 0.10 0.10 79 1006.9
20260510011517 26 321 0.0 0.0 0.00 0.10 0.10 77 1006.6
20260510010115 27 322 0.0 0.0 0.00 0.10 0.10 75 1006.6
20260510004513 27 322 0.0 0.0 0.00 0.10 0.10 73 1006.6
20260510003013 27 103 0.0 0.0 0.00 0.10 0.10 71 1006.4
20260510001512 28 23 0.0 0.0 0.00 0.10 0.10 70 1006.3
20260510000012 28 128 0.0 0.0 0.00 0.10 0.10 67 1006.2
20260509234512 28 123 0.0 1.6 0.00 0.10 0.10 65 1006.1
20260509233011 28 300 0.0 0.0 0.00 0.10 0.10 64 1006.0
20260509231511 29 275 0.0 0.0 0.00 0.10 0.10 60 1006.0
20260509230021 29 241 0.0 0.0 0.00 0.10 0.10 58 1006.1
20260509224509 30 114 0.0 0.0 0.00 0.10 0.10 59 1006.0
20260509223008 30 276 0.0 0.0 0.00 0.10 0.10 50 1006.0
20260509221507 30 143 0.0 0.0 0.00 0.10 0.10 55 1005.8
20260509220007 30 141 0.0 0.0 0.00 0.10 0.10 53 1005.6
20260509214505 29 136 0.0 0.0 0.00 0.10 0.10 56 1005.8
20260509213003 28 262 0.0 0.0 0.00 0.10 0.10 58 1006.0
20260509211605 26 147 0.0 0.0 0.00 0.10 0.10 60 1006.4
20260509210059 24 105 0.0 6.4 0.00 0.10 0.10 61 1006.9
20260509204556 25 82 0.0 9.7 0.00 0.10 0.10 64 1006.7
20260509203100 27 81 0.0 11.3 0.00 0.10 0.10 54 1006.9
20260509201558 32 72 0.0 0.0 0.00 0.10 0.10 53 1007.1
20260509200055 32 83 0.0 0.0 0.00 0.10 0.10 54 1006.8
20260509194558 33 137 0.0 0.0 0.00 0.10 0.10 51 1006.9
20260509193049 33 120 0.0 3.2 0.00 0.10 0.10 52 1007.0
20260509191557 33 262 0.0 1.6 0.00 0.10 0.10 52 1007.2
20260509190046 33 143 0.0 1.6 0.00 0.10 0.10 56 1007.4
20260509184540 32 240 0.0 0.0 0.00 0.10 0.10 60 1007.7
20260509183037 32 76 0.0 0.0 0.00 0.10 0.10 64 1008.1
20260509181536 32 231 0.0 0.0 0.00 0.10 0.10 64 1008.3
20260509180037 31 132 0.0 0.0 0.00 0.10 0.10 69 1008.3
20260509174526 30 63 0.0 1.6 0.00 0.10 0.10 69 1008.7
20260509173031 30 85 0.0 0.0 0.00 0.10 0.10 73 1008.9
20260509171524 29 84 0.0 0.0 0.00 0.10 0.10 79 1009.0
20260509170020 28 300 0.0 0.0 0.00 0.10 0.10 77 1009.1
20260509164515 27 151 0.0 0.0 0.00 0.10 0.10 79 1009.2
20260509163012 27 147 0.0 0.0 0.00 0.10 0.10 82 1009.2
20260509161510 27 114 0.0 0.0 0.00 0.10 0.10 82 1009.1
20260509160007 27 91 0.0 0.0 0.00 0.10 0.10 83 1009.1
20260509154504 26 146 0.0 0.0 0.00 0.10 0.10 92 1009.0
20260509153105 25 228 0.0 1.6 0.00 0.10 0.10 96 1009.3
20260509151556 23 135 0.0 0.0 0.00 0.10 0.10 98 1009.3
20260509150054 23 110 0.0 1.6 0.00 0.10 0.10 98 1009.4
20260509144554 23 310 0.0 0.0 0.00 0.10 0.10 98 1009.1
20260509143051 22 345 0.0 0.0 0.00 0.10 0.10 98 1009.0
20260509141549 22 344 0.0 0.0 0.00 0.10 0.10 98 1008.8
20260509134551 22 344 0.0 0.0 0.00 0.10 0.10 97 1009.2
20260509133048 22 344 0.0 0.0 0.00 0.10 0.10 97 1009.2
20260509131547 22 344 0.0 0.0 0.00 0.10 0.10 97 1009.1
20260509130047 22 344 0.0 0.0 0.00 0.10 0.10 98 1008.9
20260509124551 22 344 0.0 0.0 0.00 0.10 0.10 97 1008.5
20260509123045 22 344 0.0 0.0 0.00 0.10 0.10 97 1008.5
20260509121544 22 344 0.0 0.0 0.00 0.10 0.10 97 1008.8
20260509120045 22 344 0.0 0.0 0.03 0.10 0.10 97 1008.9
20260509114543 22 302 0.0 0.0 0.03 0.10 0.10 97 1009.0
20260509113043 22 302 0.0 0.0 0.03 0.10 0.10 97 1009.3
20260509111542 22 302 0.0 0.0 0.03 0.10 0.10 97 1009.5
20260509110041 22 302 0.0 0.0 0.00 0.08 0.08 97 1009.8
20260509104541 22 302 0.0 0.0 0.00 0.08 0.08 97 1009.8
20260509103046 22 301 0.0 0.0 0.00 0.08 0.08 97 1009.6
20260509101536 22 301 0.0 0.0 0.03 0.08 0.08 97 1009.0
20260509100034 22 302 0.0 0.0 0.03 0.08 0.08 96 1008.7
20260509094534 22 302 0.0 0.0 0.05 0.08 0.08 96 1008.4
20260509093033 22 302 0.0 0.0 0.08 0.08 0.08 96 1008.6
20260509091545 22 301 0.0 0.0 0.05 0.05 0.05 96 1008.3
20260509090038 22 302 0.0 0.0 0.05 0.05 0.05 96 1008.4
20260509084533 22 302 0.0 0.0 0.03 0.03 0.03 96 1008.6
20260509083031 22 302 0.0 0.0 0.00 0.00 0.00 95 1008.6
20260509081531 22 301 0.0 0.0 0.00 0.00 0.00 95 1008.8
20260509080029 22 302 0.0 0.0 0.00 0.00 0.00 95 1008.6
20260509074529 22 263 0.0 0.0 0.00 0.00 0.00 95 1008.4
20260509073035 22 263 0.0 0.0 0.00 0.00 0.00 95 1008.6
20260509071527 22 263 0.0 0.0 0.00 0.00 0.00 95 1008.7
20260509070027 22 263 0.0 0.0 0.00 0.00 0.00 94 1008.9
20260509064525 22 162 0.0 0.0 0.00 0.00 0.00 94 1008.5
20260509063030 22 143 0.0 0.0 0.00 0.00 0.00 94 1008.4
20260509061524 22 121 0.0 0.0 0.00 0.00 0.00 94 1008.5
20260509060027 22 120 0.0 1.6 0.00 0.00 0.00 93 1008.5
20260509054522 22 133 0.0 3.2 0.00 0.00 0.00 93 1008.3
20260509053032 22 167 0.0 0.0 0.00 0.00 0.00 93 1008.5
20260509051520 22 169 0.0 0.0 0.00 0.00 0.00 93 1008.3
20260509050019 22 233 0.0 0.0 0.00 0.00 0.00 93 1008.2
20260509044517 22 336 0.0 0.0 0.00 0.00 0.00 92 1008.0
20260509043035 22 80 0.0 0.0 0.00 0.00 0.00 91 1008.1
20260509041517 22 264 0.0 0.0 0.00 0.00 0.00 91 1008.3
20260509040014 22 281 0.0 0.0 0.00 0.00 0.00 91 1008.5
20260509034514 22 285 0.0 0.0 0.00 0.00 0.00 91 1008.6